QPF
0.00 0.00 0.01 0.01 0.01 0.01 0.01 0.00 0.00 0.00 0.00 0.00 0.00 0.00 0.00 0.00 0.00 0.00 0.00 0.00 0.00 0.00 0.00 0.02 0.02 0.02 0.03 0.03 0.03 0.03 0.02 0.03 0.06 0.08 0.07 0.06 0.02 0.01 0.01 0.03 0.05 0.04 0.03 0.03 0.03 0.03 0.03 0.03 0.03
0.00 0.01 0.01 0.02 0.01 0.01 0.00 0.00 0.00 0.00 0.00 0.00 0.00 0.00 0.00 0.00 0.00 0.00 0.00 0.00 0.00 0.00 0.01 0.01 0.02 0.02 0.02 0.02 0.03 0.04 0.04 0.05 0.09 0.11 0.12 0.10 0.07 0.03 0.02 0.03 0.03 0.02 0.02 0.02 0.02 0.02 0.03 0.02 0.02
0.01 0.01 0.01 0.01 0.01 0.00 0.00 0.00 0.00 0.00 0.00 0.00 0.00 0.00 0.00 0.00 0.00 0.00 0.00 0.00 0.01 0.01 0.01 0.01 0.02 0.02 0.02 0.02 0.02 0.03 0.03 0.03 0.05 0.07 0.08 0.07 0.07 0.05 0.04 0.03 0.02 0.02 0.01 0.01 0.01 0.01 0.02 0.02 0.02
0.01 0.01 0.00 0.00 0.01 0.01 0.00 0.00 0.00 0.00 0.00 0.00 0.00 0.00 0.00 0.00 0.00 0.00 0.01 0.01 0.01 0.01 0.01 0.01 0.02 0.02 0.02 0.02 0.02 0.02 0.03 0.02 0.03 0.04 0.05 0.05 0.06 0.04 0.04 0.03 0.02 0.02 0.02 0.01 0.01 0.01 0.01 0.01 0.02
0.00 0.00 0.00 0.00 0.00 0.01 0.01 0.00 0.00 0.00 0.00 0.00 0.00 0.00 0.00 0.00 0.00 0.01 0.01 0.01 0.01 0.01 0.01 0.01 0.01 0.02 0.02 0.02 0.03 0.02 0.02 0.03 0.03 0.04 0.05 0.05 0.06 0.05 0.04 0.03 0.04 0.03 0.02 0.02 0.02 0.01 0.01 0.01 0.01
0.01 0.01 0.00 0.00 0.00 0.00 0.00 0.00 0.00 0.00 0.00 0.00 0.00 0.00 0.00 0.01 0.01 0.01 0.01 0.01 0.01 0.01 0.01 0.01 0.01 0.01 0.02 0.03 0.03 0.03 0.02 0.03 0.03 0.03 0.05 0.05 0.06 0.06 0.04 0.03 0.03 0.03 0.03 0.03 0.03 0.03 0.03 0.02 0.02
0.02 0.01 0.01 0.00 0.00 0.00 0.00 0.00 0.00 0.00 0.00 0.00 0.00 0.00 0.00 0.01 0.01 0.01 0.01 0.01 0.01 0.01 0.01 0.01 0.01 0.01 0.02 0.02 0.03 0.03 0.03 0.03 0.03 0.03 0.04 0.04 0.06 0.07 0.06 0.04 0.04 0.04 0.04 0.03 0.03 0.04 0.04 0.02 0.03
0.02 0.03 0.02 0.00 0.00 0.00 0.00 0.00 0.00 0.00 0.00 0.00 0.00 0.00 0.00 0.00 0.01 0.01 0.01 0.01 0.01 0.01 0.01 0.01 0.01 0.01 0.02 0.02 0.02 0.03 0.03 0.03 0.03 0.03 0.04 0.04 0.05 0.06 0.06 0.05 0.04 0.05 0.05 0.04 0.04 0.04 0.03 0.02 0.04
0.01 0.02 0.02 0.01 0.00 0.00 0.00 0.00 0.00 0.00 0.00 0.00 0.00 0.00 0.00 0.00 0.01 0.01 0.01 0.01 0.01 0.01 0.01 0.01 0.01 0.01 0.01 0.02 0.02 0.02 0.02 0.02 0.02 0.03 0.03 0.04 0.07 0.07 0.05 0.04 0.04 0.06 0.06 0.05 0.06 0.03 0.02 0.02 0.03
0.01 0.01 0.00 0.00 0.00 0.00 0.00 0.00 0.00 0.00 0.00 0.00 0.00 0.00 0.00 0.00 0.01 0.01 0.01 0.01 0.01 0.01 0.00 0.01 0.01 0.01 0.01 0.01 0.01 0.02 0.02 0.03 0.02 0.02 0.02 0.04 0.06 0.06 0.04 0.04 0.05 0.06 0.06 0.07 0.07 0.03 0.03 0.03 0.02
0.02 0.00 0.00 0.00 0.00 0.00 0.00 0.00 0.00 0.00 0.00 0.00 0.00 0.00 0.00 0.00 0.01 0.01 0.01 0.01 0.01 0.01 0.01 0.01 0.01 0.01 0.01 0.01 0.02 0.02 0.02 0.03 0.03 0.03 0.03 0.04 0.05 0.05 0.06 0.07 0.07 0.07 0.05 0.07 0.05 0.05 0.04 0.04 0.03
0.02 0.00 0.00 0.00 0.00 0.00 0.00 0.00 0.00 0.00 0.00 0.00 0.00 0.00 0.00 0.00 0.01 0.01 0.01 0.01 0.02 0.02 0.02 0.02 0.02 0.02 0.02 0.01 0.01 0.02 0.03 0.03 0.04 0.04 0.04 0.04 0.06 0.06 0.06 0.05 0.05 0.06 0.06 0.06 0.05 0.06 0.06 0.04 0.03
0.01 0.01 0.00 0.00 0.00 0.00 0.00 0.00 0.00 0.00 0.00 0.00 0.00 0.00 0.01 0.01 0.01 0.01 0.01 0.01 0.03 0.03 0.02 0.01 0.01 0.02 0.02 0.01 0.01 0.02 0.03 0.04 0.05 0.05 0.06 0.06 0.06 0.07 0.07 0.05 0.03 0.03 0.04 0.07 0.08 0.06 0.07 0.06 0.03
0.00 0.00 0.00 0.00 0.00 0.00 0.00 0.00 0.00 0.00 0.00 0.00 0.00 0.00 0.01 0.01 0.01 0.01 0.01 0.02 0.02 0.01 0.01 0.01 0.02 0.02 0.02 0.01 0.01 0.01 0.01 0.02 0.02 0.03 0.04 0.06 0.09 0.10 0.07 0.05 0.04 0.04 0.03 0.03 0.05 0.06 0.08 0.08 0.05
0.01 0.01 0.01 0.00 0.00 0.00 0.00 0.00 0.00 0.00 0.00 0.01 0.01 0.01 0.01 0.01 0.01 0.01 0.01 0.01 0.02 0.01 0.01 0.01 0.02 0.02 0.02 0.02 0.02 0.02 0.02 0.03 0.02 0.02 0.03 0.05 0.07 0.09 0.09 0.07 0.06 0.05 0.04 0.03 0.03 0.04 0.06 0.07 0.05
0.01 0.02 0.01 0.00 0.00 0.00 0.00 0.00 0.00 0.00 0.00 0.00 0.01 0.00 0.00 0.01 0.01 0.01 0.01 0.01 0.01 0.01 0.01 0.01 0.01 0.02 0.02 0.02 0.02 0.02 0.02 0.02 0.02 0.02 0.02 0.03 0.04 0.04 0.06 0.09 0.10 0.08 0.06 0.04 0.03 0.03 0.04 0.05 0.05
0.02 0.02 0.01 0.00 0.00 0.00 0.00 0.00 0.00 0.00 0.00 0.00 0.00 0.00 0.00 0.00 0.01 0.00 0.00 0.01 0.01 0.01 0.01 0.01 0.01 0.01 0.01 0.02 0.02 0.02 0.03 0.02 0.02 0.02 0.02 0.02 0.03 0.04 0.03 0.04 0.06 0.09 0.08 0.05 0.04 0.03 0.03 0.03 0.04
0.02 0.01 0.00 0.00 0.00 0.00 0.00 0.00 0.00 0.00 0.00 0.00 0.00 0.00 0.00 0.00 0.00 0.00 0.00 0.01 0.01 0.01 0.01 0.01 0.01 0.01 0.00 0.01 0.02 0.03 0.03 0.03 0.02 0.02 0.02 0.02 0.03 0.03 0.04 0.03 0.03 0.06 0.07 0.06 0.05 0.04 0.03 0.02 0.02
0.01 0.02 0.01 0.00 0.00 0.00 0.00 0.00 0.00 0.00 0.00 0.00 0.00 0.00 0.00 0.00 0.00 0.00 0.00 0.01 0.01 0.01 0.01 0.01 0.01 0.00 0.00 0.01 0.01 0.02 0.02 0.02 0.02 0.01 0.01 0.02 0.03 0.03 0.03 0.03 0.02 0.02 0.03 0.05 0.05 0.05 0.05 0.03 0.02
0.02 0.02 0.02 0.01 0.00 0.00 0.00 0.00 0.00 0.00 0.00 0.00 0.00 0.00 0.00 0.00 0.00 0.00 0.00 0.01 0.01 0.01 0.01 0.01 0.01 0.01 0.01 0.01 0.00 0.01 0.01 0.01 0.01 0.01 0.01 0.02 0.02 0.02 0.02 0.02 0.02 0.01 0.01 0.03 0.04 0.03 0.04 0.04 0.03
0.01 0.01 0.01 0.01 0.01 0.01 0.01 0.00 0.00 0.00 0.00 0.00 0.00 0.00 0.00 0.00 0.00 0.00 0.00 0.00 0.00 0.00 0.01 0.01 0.01 0.01 0.01 0.01 0.01 0.01 0.01 0.02 0.02 0.01 0.01 0.01 0.02 0.02 0.02 0.01 0.01 0.01 0.01 0.01 0.02 0.03 0.03 0.03 0.03
0.01 0.01 0.01 0.01 0.01 0.02 0.01 0.01 0.00 0.00 0.00 0.00 0.00 0.00 0.01 0.01 0.00 0.00 0.00 0.00 0.00 0.00 0.01 0.01 0.01 0.01 0.01 0.01 0.01 0.01 0.01 0.01 0.01 0.01 0.01 0.01 0.02 0.02 0.02 0.02 0.01 0.01 0.01 0.01 0.01 0.02 0.03 0.03 0.03
0.01 0.01 0.01 0.01 0.01 0.01 0.02 0.02 0.01 0.00 0.00 0.00 0.00 0.00 0.00 0.00 0.01 0.01 0.00 0.00 0.01 0.00 0.00 0.00 0.00 0.00 0.00 0.00 0.01 0.01 0.01 0.01 0.00 0.01 0.01 0.01 0.01 0.02 0.02 0.02 0.02 0.01 0.01 0.01 0.01 0.01 0.03 0.03 0.03
0.01 0.01 0.02 0.02 0.03 0.03 0.01 0.02 0.01 0.00 0.00 0.00 0.00 0.00 0.00 0.00 0.00 0.01 0.00 0.01 0.01 0.01 0.01 0.00 0.00 0.00 0.00 0.00 0.00 0.01 0.01 0.01 0.01 0.01 0.01 0.01 0.01 0.01 0.02 0.02 0.02 0.01 0.01 0.01 0.01 0.01 0.02 0.04 0.03
0.01 0.02 0.03 0.04 0.05 0.02 0.00 0.01 0.01 0.00 0.00 0.00 0.01 0.00 0.01 0.00 0.00 0.01 0.00 0.00 0.00 0.01 0.01 0.00 0.00 0.00 0.00 0.00 0.00 0.01 0.01 0.01 0.00 0.00 0.01 0.01 0.01 0.01 0.01 0.02 0.02 0.02 0.01 0.01 0.01 0.01 0.01 0.02 0.04
0.01 0.02 0.03 0.02 0.01 0.01 0.00 0.01 0.01 0.00 0.00 0.00 0.01 0.01 0.01 0.00 0.00 0.01 0.01 0.01 0.01 0.01 0.01 0.01 0.01 0.00 0.00 0.00 0.00 0.00 0.01 0.01 0.01 0.01 0.01 0.01 0.01 0.01 0.01 0.01 0.02 0.02 0.02 0.02 0.02 0.01 0.01 0.01 0.02
0.02 0.02 0.01 0.02 0.02 0.01 0.01 0.01 0.00 0.00 0.00 0.00 0.01 0.01 0.01 0.01 0.01 0.01 0.01 0.01 0.01 0.01 0.01 0.01 0.01 0.01 0.01 0.00 0.00 0.01 0.01 0.01 0.01 0.01 0.01 0.01 0.01 0.01 0.01 0.01 0.01 0.02 0.02 0.02 0.02 0.02 0.02 0.02 0.02
0.02 0.03 0.03 0.03 0.03 0.02 0.01 0.00 0.01 0.00 0.00 0.00 0.01 0.01 0.02 0.02 0.03 0.03 0.02 0.02 0.01 0.01 0.01 0.01 0.02 0.01 0.01 0.01 0.01 0.01 0.01 0.01 0.01 0.01 0.01 0.01 0.00 0.01 0.01 0.01 0.01 0.01 0.02 0.03 0.03 0.02 0.02 0.02 0.03
0.03 0.03 0.04 0.03 0.02 0.02 0.01 0.00 0.01 0.00 0.00 0.00 0.01 0.01 0.01 0.01 0.01 0.01 0.01 0.01 0.01 0.01 0.01 0.01 0.01 0.01 0.01 0.01 0.01 0.01 0.02 0.02 0.01 0.01 0.01 0.01 0.01 0.01 0.01 0.01 0.01 0.01 0.01 0.02 0.02 0.02 0.02 0.02 0.03
0.03 0.04 0.04 0.03 0.02 0.01 0.01 0.01 0.00 0.00 0.00 0.00 0.01 0.01 0.01 0.00 0.00 0.00 0.00 0.01 0.01 0.01 0.01 0.01 0.01 0.01 0.02 0.01 0.01 0.01 0.02 0.02 0.03 0.02 0.01 0.01 0.01 0.01 0.01 0.02 0.02 0.02 0.02 0.02 0.03 0.03 0.03 0.03 0.03
MSLP
1015.44 1015.34 1015.47 1015.81 1016.30 1016.84 1017.32 1017.66 1017.80 1017.75 1017.55 1017.31 1017.12 1017.05 1017.12 1017.31 1017.55 1017.73 1017.77 1017.59 1017.18 1016.57 1015.85 1015.12 1014.49 1014.02 1013.76 1013.69 1013.78 1013.95 1014.14 1014.32 1014.47 1014.59 1014.70 1014.84 1015.02 1015.24 1015.49 1015.75 1016.01 1016.24 1016.44 1016.62 1016.80 1016.98 1017.17 1017.36 1017.55
1015.50 1015.50 1015.75 1016.22 1016.82 1017.44 1017.97 1018.31 1018.42 1018.32 1018.07 1017.79 1017.58 1017.51 1017.60 1017.83 1018.12 1018.34 1018.39 1018.20 1017.75 1017.09 1016.29 1015.48 1014.76 1014.23 1013.91 1013.80 1013.86 1014.01 1014.20 1014.37 1014.51 1014.62 1014.72 1014.84 1014.99 1015.19 1015.43 1015.69 1015.94 1016.19 1016.41 1016.62 1016.83 1017.04 1017.26 1017.48 1017.68
1015.60 1015.69 1016.05 1016.62 1017.31 1018.01 1018.57 1018.93 1019.03 1018.91 1018.64 1018.34 1018.11 1018.03 1018.13 1018.37 1018.65 1018.87 1018.90 1018.69 1018.21 1017.51 1016.67 1015.82 1015.07 1014.49 1014.14 1013.99 1014.00 1014.11 1014.25 1014.39 1014.49 1014.56 1014.63 1014.73 1014.87 1015.07 1015.31 1015.58 1015.86 1016.14 1016.40 1016.65 1016.90 1017.15 1017.39 1017.63 1017.85
1015.78 1015.96 1016.41 1017.06 1017.81 1018.55 1019.15 1019.51 1019.62 1019.50 1019.23 1018.92 1018.69 1018.61 1018.69 1018.89 1019.14 1019.31 1019.31 1019.06 1018.56 1017.86 1017.03 1016.18 1015.43 1014.85 1014.47 1014.28 1014.23 1014.27 1014.33 1014.38 1014.41 1014.43 1014.47 1014.55 1014.70 1014.91 1015.18 1015.48 1015.81 1016.13 1016.43 1016.73 1017.02 1017.30 1017.58 1017.84 1018.08
1016.10 1016.36 1016.87 1017.57 1018.36 1019.11 1019.71 1020.09 1020.20 1020.09 1019.83 1019.54 1019.31 1019.21 1019.25 1019.39 1019.57 1019.67 1019.62 1019.34 1018.84 1018.15 1017.36 1016.57 1015.86 1015.30 1014.91 1014.67 1014.55 1014.48 1014.43 1014.38 1014.32 1014.27 1014.27 1014.34 1014.49 1014.74 1015.05 1015.41 1015.79 1016.16 1016.52 1016.86 1017.19 1017.50 1017.80 1018.09 1018.34
1016.61 1016.94 1017.50 1018.22 1019.00 1019.74 1020.32 1020.68 1020.79 1020.70 1020.46 1020.18 1019.95 1019.82 1019.80 1019.87 1019.96 1019.98 1019.85 1019.54 1019.05 1018.40 1017.69 1016.97 1016.33 1015.81 1015.42 1015.14 1014.92 1014.74 1014.57 1014.39 1014.22 1014.10 1014.05 1014.11 1014.29 1014.57 1014.94 1015.36 1015.80 1016.22 1016.62 1017.00 1017.35 1017.69 1018.02 1018.32 1018.59
1017.31 1017.71 1018.30 1019.02 1019.77 1020.45 1020.99 1021.31 1021.42 1021.32 1021.11 1020.84 1020.60 1020.44 1020.36 1020.34 1020.32 1020.24 1020.04 1019.70 1019.21 1018.63 1017.99 1017.37 1016.81 1016.34 1015.95 1015.61 1015.31 1015.00 1014.69 1014.38 1014.11 1013.91 1013.83 1013.88 1014.09 1014.41 1014.83 1015.30 1015.78 1016.25 1016.68 1017.08 1017.46 1017.81 1018.16 1018.48 1018.77
1018.20 1018.66 1019.26 1019.95 1020.64 1021.25 1021.72 1021.99 1022.07 1021.97 1021.77 1021.51 1021.27 1021.07 1020.92 1020.81 1020.68 1020.50 1020.22 1019.84 1019.37 1018.83 1018.28 1017.75 1017.26 1016.82 1016.43 1016.04 1015.64 1015.21 1014.77 1014.34 1013.96 1013.70 1013.59 1013.64 1013.86 1014.23 1014.68 1015.19 1015.70 1016.19 1016.63 1017.05 1017.44 1017.82 1018.18 1018.52 1018.84
1019.20 1019.71 1020.31 1020.95 1021.56 1022.09 1022.47 1022.69 1022.73 1022.62 1022.43 1022.18 1021.93 1021.70 1021.49 1021.29 1021.06 1020.78 1020.43 1020.00 1019.53 1019.03 1018.54 1018.07 1017.64 1017.22 1016.81 1016.36 1015.87 1015.33 1014.77 1014.23 1013.78 1013.46 1013.32 1013.37 1013.60 1013.98 1014.46 1014.98 1015.50 1015.99 1016.45 1016.88 1017.28 1017.67 1018.06 1018.44 1018.79
1020.23 1020.76 1021.35 1021.93 1022.47 1022.90 1023.19 1023.34 1023.35 1023.23 1023.04 1022.81 1022.56 1022.31 1022.05 1021.77 1021.46 1021.09 1020.67 1020.20 1019.71 1019.23 1018.77 1018.35 1017.94 1017.52 1017.07 1016.56 1015.97 1015.33 1014.67 1014.05 1013.53 1013.16 1013.00 1013.04 1013.27 1013.65 1014.13 1014.65 1015.17 1015.67 1016.13 1016.56 1016.99 1017.41 1017.83 1018.24 1018.63
1021.20 1021.73 1022.29 1022.81 1023.25 1023.59 1023.80 1023.89 1023.86 1023.74 1023.56 1023.35 1023.11 1022.86 1022.57 1022.24 1021.86 1021.42 1020.94 1020.43 1019.93 1019.45 1019.00 1018.58 1018.16 1017.72 1017.22 1016.64 1015.97 1015.24 1014.50 1013.80 1013.22 1012.82 1012.63 1012.66 1012.87 1013.24 1013.71 1014.22 1014.73 1015.22 1015.69 1016.15 1016.61 1017.07 1017.53 1017.99 1018.42
1022.02 1022.54 1023.05 1023.50 1023.86 1024.11 1024.25 1024.28 1024.23 1024.11 1023.95 1023.76 1023.55 1023.30 1023.00 1022.65 1022.23 1021.75 1021.23 1020.69 1020.16 1019.67 1019.21 1018.77 1018.33 1017.85 1017.30 1016.64 1015.90 1015.09 1014.27 1013.52 1012.89 1012.45 1012.23 1012.22 1012.41 1012.75 1013.19 1013.69 1014.20 1014.70 1015.20 1015.70 1016.20 1016.71 1017.23 1017.73 1018.20
1022.67 1023.15 1023.60 1023.97 1024.25 1024.42 1024.49 1024.48 1024.40 1024.29 1024.15 1023.99 1023.81 1023.59 1023.31 1022.95 1022.51 1022.02 1021.47 1020.92 1020.38 1019.87 1019.40 1018.94 1018.47 1017.95 1017.34 1016.62 1015.81 1014.94 1014.06 1013.24 1012.57 1012.08 1011.81 1011.76 1011.91 1012.21 1012.63 1013.11 1013.63 1014.16 1014.70 1015.25 1015.82 1016.40 1016.97 1017.53 1018.03
1023.16 1023.58 1023.95 1024.25 1024.45 1024.55 1024.56 1024.51 1024.41 1024.29 1024.16 1024.03 1023.88 1023.68 1023.42 1023.09 1022.66 1022.17 1021.63 1021.08 1020.54 1020.03 1019.55 1019.09 1018.59 1018.04 1017.39 1016.62 1015.76 1014.83 1013.90 1013.02 1012.29 1011.73 1011.40 1011.29 1011.38 1011.64 1012.03 1012.51 1013.04 1013.62 1014.22 1014.85 1015.50 1016.15 1016.79 1017.38 1017.91
1023.52 1023.88 1024.19 1024.41 1024.54 1024.56 1024.51 1024.40 1024.27 1024.13 1024.01 1023.89 1023.76 1023.59 1023.35 1023.04 1022.65 1022.18 1021.66 1021.13 1020.61 1020.12 1019.65 1019.19 1018.70 1018.13 1017.46 1016.67 1015.78 1014.80 1013.82 1012.88 1012.07 1011.44 1011.02 1010.83 1010.84 1011.05 1011.41 1011.89 1012.46 1013.09 1013.78 1014.50 1015.23 1015.95 1016.65 1017.28 1017.82
1023.84 1024.15 1024.39 1024.54 1024.59 1024.54 1024.41 1024.24 1024.05 1023.88 1023.73 1023.60 1023.47 1023.32 1023.11 1022.83 1022.47 1022.03 1021.55 1021.05 1020.57 1020.11 1019.67 1019.23 1018.76 1018.21 1017.55 1016.76 1015.85 1014.86 1013.82 1012.82 1011.92 1011.19 1010.67 1010.37 1010.30 1010.44 1010.77 1011.25 1011.86 1012.56 1013.33 1014.14 1014.96 1015.75 1016.50 1017.15 1017.71
1024.17 1024.44 1024.63 1024.71 1024.69 1024.55 1024.33 1024.07 1023.81 1023.57 1023.37 1023.22 1023.08 1022.93 1022.74 1022.49 1022.16 1021.76 1021.31 1020.86 1020.41 1019.99 1019.59 1019.20 1018.77 1018.26 1017.63 1016.87 1015.96 1014.95 1013.88 1012.81 1011.82 1010.98 1010.33 1009.91 1009.74 1009.81 1010.10 1010.58 1011.22 1011.99 1012.84 1013.73 1014.63 1015.49 1016.27 1016.95 1017.50
1024.57 1024.81 1024.96 1024.98 1024.87 1024.63 1024.31 1023.94 1023.57 1023.24 1022.98 1022.78 1022.62 1022.47 1022.30 1022.07 1021.77 1021.41 1021.01 1020.58 1020.17 1019.79 1019.43 1019.08 1018.70 1018.24 1017.66 1016.93 1016.06 1015.04 1013.94 1012.81 1011.72 1010.76 1009.99 1009.45 1009.17 1009.15 1009.39 1009.86 1010.52 1011.34 1012.26 1013.22 1014.18 1015.09 1015.91 1016.60 1017.15
1025.03 1025.27 1025.39 1025.35 1025.14 1024.79 1024.33 1023.83 1023.33 1022.90 1022.56 1022.31 1022.13 1021.99 1021.84 1021.65 1021.39 1021.06 1020.68 1020.28 1019.88 1019.52 1019.18 1018.86 1018.52 1018.11 1017.59 1016.91 1016.07 1015.07 1013.95 1012.77 1011.61 1010.54 1009.64 1008.97 1008.57 1008.46 1008.64 1009.08 1009.76 1010.60 1011.56 1012.58 1013.59 1014.53 1015.37 1016.07 1016.63
1025.54 1025.79 1025.88 1025.77 1025.46 1024.97 1024.36 1023.70 1023.06 1022.52 1022.10 1021.80 1021.62 1021.50 1021.39 1021.25 1021.04 1020.75 1020.39 1020.00 1019.60 1019.22 1018.88 1018.57 1018.25 1017.87 1017.39 1016.77 1015.97 1015.00 1013.88 1012.67 1011.44 1010.29 1009.28 1008.50 1007.99 1007.78 1007.88 1008.28 1008.93 1009.78 1010.76 1011.80 1012.83 1013.80 1014.65 1015.36 1015.94
1026.04 1026.31 1026.37 1026.19 1025.75 1025.11 1024.33 1023.50 1022.71 1022.05 1021.56 1021.25 1021.08 1021.01 1020.98 1020.91 1020.76 1020.51 1020.17 1019.77 1019.34 1018.93 1018.55 1018.21 1017.87 1017.51 1017.06 1016.48 1015.73 1014.79 1013.70 1012.49 1011.24 1010.02 1008.93 1008.05 1007.43 1007.13 1007.14 1007.48 1008.09 1008.91 1009.87 1010.91 1011.95 1012.92 1013.78 1014.51 1015.09
1026.50 1026.79 1026.81 1026.53 1025.96 1025.15 1024.18 1023.18 1022.24 1021.47 1020.93 1020.61 1020.49 1020.50 1020.56 1020.59 1020.52 1020.33 1020.01 1019.59 1019.12 1018.65 1018.20 1017.79 1017.42 1017.04 1016.60 1016.04 1015.34 1014.46 1013.42 1012.24 1010.99 1009.75 1008.62 1007.66 1006.96 1006.56 1006.48 1006.73 1007.26 1008.02 1008.94 1009.95 1010.97 1011.94 1012.80 1013.54 1014.14
1026.87 1027.16 1027.14 1026.76 1026.04 1025.05 1023.90 1022.71 1021.63 1020.77 1020.18 1019.88 1019.82 1019.93 1020.11 1020.26 1020.29 1020.16 1019.87 1019.44 1018.92 1018.36 1017.83 1017.34 1016.89 1016.47 1016.02 1015.49 1014.84 1014.03 1013.05 1011.93 1010.73 1009.51 1008.35 1007.36 1006.59 1006.09 1005.91 1006.06 1006.49 1007.16 1008.01 1008.96 1009.95 1010.89 1011.76 1012.50 1013.13
1027.12 1027.42 1027.34 1026.86 1025.99 1024.82 1023.48 1022.13 1020.91 1019.96 1019.34 1019.06 1019.07 1019.29 1019.59 1019.86 1020.00 1019.95 1019.69 1019.24 1018.67 1018.05 1017.42 1016.83 1016.31 1015.83 1015.37 1014.85 1014.25 1013.51 1012.62 1011.59 1010.46 1009.29 1008.15 1007.14 1006.31 1005.74 1005.46 1005.48 1005.79 1006.35 1007.11 1007.98 1008.91 1009.84 1010.69 1011.45 1012.11
1027.24 1027.54 1027.41 1026.83 1025.82 1024.49 1022.98 1021.47 1020.13 1019.10 1018.45 1018.19 1018.27 1018.58 1018.99 1019.38 1019.61 1019.63 1019.40 1018.96 1018.36 1017.66 1016.95 1016.28 1015.68 1015.15 1014.66 1014.16 1013.60 1012.93 1012.14 1011.21 1010.18 1009.08 1007.99 1006.98 1006.12 1005.48 1005.09 1004.99 1005.17 1005.61 1006.24 1007.03 1007.91 1008.79 1009.65 1010.42 1011.10
1027.25 1027.54 1027.35 1026.68 1025.55 1024.09 1022.44 1020.81 1019.37 1018.27 1017.59 1017.34 1017.46 1017.83 1018.32 1018.79 1019.10 1019.18 1018.99 1018.55 1017.93 1017.19 1016.42 1015.68 1015.01 1014.43 1013.92 1013.43 1012.91 1012.32 1011.62 1010.80 1009.87 1008.86 1007.83 1006.85 1005.97 1005.26 1004.78 1004.56 1004.60 1004.90 1005.43 1006.12 1006.93 1007.79 1008.64 1009.43 1010.14
1027.12 1027.39 1027.17 1026.42 1025.21 1023.65 1021.92 1020.20 1018.69 1017.54 1016.83 1016.57 1016.70 1017.09 1017.62 1018.12 1018.48 1018.59 1018.43 1018.01 1017.38 1016.62 1015.82 1015.04 1014.33 1013.71 1013.18 1012.69 1012.20 1011.67 1011.05 1010.33 1009.49 1008.58 1007.62 1006.67 1005.79 1005.03 1004.47 1004.14 1004.06 1004.23 1004.64 1005.25 1006.00 1006.83 1007.68 1008.50 1009.25
1026.84 1027.09 1026.82 1026.03 1024.78 1023.17 1021.40 1019.66 1018.13 1016.96 1016.23 1015.95 1016.05 1016.42 1016.93 1017.43 1017.78 1017.90 1017.76 1017.35 1016.74 1015.99 1015.18 1014.38 1013.65 1013.01 1012.45 1011.95 1011.48 1010.98 1010.42 1009.77 1009.03 1008.19 1007.30 1006.39 1005.52 1004.74 1004.11 1003.68 1003.50 1003.56 1003.87 1004.40 1005.11 1005.92 1006.79 1007.64 1008.43
1026.39 1026.59 1026.28 1025.47 1024.20 1022.62 1020.88 1019.17 1017.67 1016.52 1015.79 1015.48 1015.54 1015.87 1016.31 1016.76 1017.07 1017.17 1017.02 1016.63 1016.04 1015.32 1014.52 1013.74 1013.00 1012.34 1011.76 1011.24 1010.75 1010.26 1009.73 1009.13 1008.44 1007.68 1006.85 1005.98 1005.13 1004.34 1003.67 1003.18 1002.91 1002.88 1003.11 1003.59 1004.26 1005.07 1005.95 1006.85 1007.69
1025.74 1025.86 1025.50 1024.67 1023.44 1021.92 1020.28 1018.67 1017.27 1016.18 1015.49 1015.17 1015.19 1015.44 1015.80 1016.16 1016.40 1016.46 1016.29 1015.91 1015.35 1014.66 1013.90 1013.13 1012.39 1011.72 1011.11 1010.55 1010.03 1009.52 1008.98 1008.39 1007.75 1007.03 1006.25 1005.43 1004.60 1003.82 1003.13 1002.60 1002.27 1002.19 1002.36 1002.79 1003.43 1004.25 1005.16 1006.10 1007.00
Thickness
5703 5706 5709 5708 5701 5696 5693 5696 5700 5698 5700 5702 5703 5704 5705 5705 5702 5695 5696 5700 5701 5700 5699 5696 5696 5696 5696 5696 5696 5696 5696 5696 5697 5697 5697 5697 5698 5698 5699 5699 5699 5699 5700 5700 5701 5702 5702 5703 5703
5700 5703 5704 5701 5693 5688 5690 5695 5693 5695 5697 5696 5696 5698 5698 5698 5697 5695 5694 5695 5696 5695 5695 5693 5691 5691 5692 5691 5692 5691 5691 5691 5691 5692 5692 5692 5692 5693 5693 5693 5693 5694 5694 5695 5695 5696 5697 5697 5698
5697 5700 5697 5693 5688 5690 5690 5690 5691 5690 5691 5692 5691 5693 5693 5691 5689 5690 5690 5690 5691 5690 5690 5688 5686 5687 5687 5687 5687 5686 5686 5686 5686 5686 5687 5687 5686 5686 5687 5687 5688 5688 5688 5689 5689 5690 5691 5691 5692
5694 5693 5691 5686 5682 5685 5687 5688 5687 5685 5685 5687 5689 5687 5686 5684 5685 5685 5685 5685 5686 5685 5684 5683 5681 5681 5681 5681 5681 5681 5681 5681 5681 5681 5682 5681 5680 5680 5680 5681 5681 5682 5683 5683 5683 5684 5684 5685 5686
5690 5687 5680 5677 5678 5680 5683 5682 5682 5683 5683 5684 5684 5684 5680 5678 5679 5680 5680 5680 5680 5680 5679 5677 5676 5676 5676 5676 5676 5676 5676 5675 5675 5676 5676 5675 5675 5674 5674 5674 5675 5676 5676 5677 5677 5677 5677 5679 5679
5681 5681 5675 5674 5675 5675 5677 5677 5677 5678 5679 5679 5679 5679 5677 5674 5674 5673 5674 5674 5674 5673 5672 5671 5670 5670 5670 5670 5670 5670 5670 5670 5670 5669 5670 5669 5668 5668 5668 5668 5668 5669 5670 5670 5670 5670 5670 5671 5672
5674 5672 5671 5672 5670 5670 5671 5672 5673 5674 5673 5674 5676 5674 5672 5670 5668 5668 5668 5668 5667 5667 5666 5666 5665 5664 5664 5664 5664 5664 5664 5664 5664 5664 5663 5663 5662 5661 5661 5662 5662 5662 5663 5663 5663 5663 5663 5664 5665
5671 5669 5663 5664 5665 5666 5667 5666 5667 5667 5668 5669 5669 5669 5667 5665 5663 5662 5661 5661 5660 5660 5660 5660 5659 5659 5658 5658 5658 5657 5658 5658 5658 5657 5657 5657 5656 5656 5655 5656 5656 5656 5657 5657 5657 5656 5656 5656 5657
5664 5660 5659 5661 5661 5662 5661 5660 5660 5661 5662 5661 5662 5663 5661 5659 5656 5655 5654 5654 5653 5653 5653 5653 5653 5652 5652 5652 5651 5651 5651 5651 5651 5651 5651 5651 5651 5650 5650 5649 5649 5650 5650 5650 5650 5649 5649 5649 5650
5656 5654 5657 5658 5659 5657 5655 5655 5654 5655 5655 5655 5655 5654 5653 5651 5650 5650 5649 5648 5648 5647 5647 5646 5646 5646 5645 5645 5645 5645 5645 5644 5644 5644 5644 5645 5644 5644 5644 5643 5642 5643 5643 5643 5642 5642 5642 5642 5643
5648 5648 5649 5649 5649 5649 5648 5648 5649 5649 5650 5653 5652 5650 5647 5645 5645 5645 5644 5643 5642 5642 5640 5639 5639 5639 5639 5639 5638 5638 5638 5637 5638 5638 5637 5637 5637 5637 5637 5637 5636 5636 5636 5636 5635 5635 5635 5635 5636
5638 5639 5640 5642 5639 5640 5641 5642 5641 5644 5648 5648 5648 5645 5641 5640 5640 5639 5638 5637 5636 5634 5633 5632 5631 5631 5631 5631 5631 5631 5631 5631 5631 5630 5630 5630 5631 5630 5630 5630 5629 5629 5629 5629 5628 5628 5629 5628 5629
5631 5631 5631 5632 5631 5632 5633 5633 5635 5638 5640 5639 5638 5636 5636 5635 5634 5633 5632 5630 5629 5627 5626 5625 5624 5624 5624 5624 5624 5624 5624 5623 5623 5622 5622 5622 5623 5623 5623 5622 5622 5621 5621 5621 5621 5621 5622 5621 5621
5624 5623 5624 5625 5625 5625 5624 5626 5625 5633 5631 5630 5630 5629 5629 5628 5627 5625 5624 5623 5621 5620 5619 5617 5617 5616 5616 5616 5616 5616 5615 5615 5615 5615 5614 5614 5615 5614 5614 5614 5613 5613 5613 5613 5613 5614 5614 5614 5614
5615 5614 5616 5617 5617 5617 5616 5619 5622 5627 5623 5622 5623 5623 5620 5620 5619 5618 5617 5615 5614 5613 5611 5610 5609 5608 5608 5608 5608 5608 5607 5607 5607 5607 5606 5606 5606 5606 5605 5605 5604 5604 5604 5604 5605 5605 5605 5605 5605
5606 5608 5611 5612 5609 5608 5607 5618 5622 5618 5615 5616 5617 5616 5614 5613 5612 5611 5609 5607 5606 5604 5604 5602 5601 5600 5599 5599 5598 5599 5598 5598 5598 5598 5598 5598 5597 5597 5597 5597 5596 5595 5595 5595 5596 5597 5597 5597 5597
5600 5602 5604 5604 5601 5600 5600 5610 5613 5609 5607 5609 5610 5609 5608 5606 5604 5602 5601 5599 5597 5596 5595 5594 5593 5592 5591 5590 5589 5589 5588 5589 5589 5589 5589 5589 5589 5589 5589 5588 5588 5587 5587 5587 5587 5588 5589 5589 5589
5594 5596 5595 5596 5594 5591 5594 5602 5604 5601 5599 5601 5602 5602 5601 5600 5598 5595 5592 5590 5588 5587 5587 5585 5584 5583 5581 5580 5580 5579 5579 5579 5579 5579 5580 5580 5580 5580 5580 5580 5579 5579 5579 5579 5579 5579 5578 5579 5580
5583 5583 5586 5587 5582 5580 5587 5591 5596 5595 5593 5594 5595 5595 5594 5593 5591 5587 5584 5582 5580 5578 5578 5577 5575 5574 5572 5571 5571 5570 5570 5569 5569 5569 5570 5570 5571 5571 5572 5572 5571 5571 5571 5571 5571 5570 5570 5569 5569
5570 5571 5575 5574 5568 5569 5577 5582 5590 5588 5586 5587 5587 5587 5586 5585 5582 5579 5576 5573 5572 5570 5568 5567 5565 5564 5563 5562 5561 5560 5559 5559 5559 5559 5560 5561 5562 5562 5563 5563 5563 5562 5562 5562 5562 5561 5561 5560 5560
5561 5563 5564 5560 5559 5559 5561 5579 5585 5583 5579 5577 5577 5577 5577 5576 5575 5572 5568 5565 5563 5562 5560 5558 5556 5555 5554 5552 5551 5549 5549 5549 5550 5551 5552 5552 5553 5553 5554 5554 5554 5554 5554 5554 5554 5553 5553 5553 5551
5553 5551 5548 5546 5549 5557 5552 5565 5581 5579 5572 5571 5570 5570 5570 5568 5566 5564 5560 5557 5555 5553 5551 5550 5548 5546 5545 5544 5543 5543 5544 5543 5543 5542 5543 5543 5544 5544 5544 5545 5545 5545 5546 5546 5545 5544 5544 5544 5544
5540 5536 5535 5535 5537 5538 5543 5542 5572 5568 5565 5567 5566 5564 5563 5560 5557 5554 5551 5549 5547 5544 5542 5541 5540 5538 5537 5535 5535 5535 5535 5535 5534 5533 5534 5534 5534 5535 5535 5536 5536 5536 5537 5537 5536 5536 5535 5536 5536
5523 5525 5523 5522 5525 5526 5538 5537 5559 5564 5560 5561 5560 5556 5553 5550 5547 5545 5542 5540 5538 5535 5533 5532 5531 5530 5528 5527 5527 5527 5526 5526 5526 5525 5525 5525 5525 5525 5526 5527 5527 5528 5528 5527 5528 5527 5527 5527 5527
5515 5518 5521 5521 5522 5534 5526 5526 5546 5555 5551 5549 5548 5547 5544 5541 5539 5536 5534 5532 5530 5528 5525 5524 5523 5522 5521 5519 5519 5519 5518 5517 5518 5518 5517 5517 5517 5517 5518 5518 5518 5518 5518 5518 5518 5518 5518 5518 5518
5505 5509 5513 5518 5526 5532 5516 5525 5546 5542 5538 5536 5535 5534 5531 5531 5530 5528 5526 5524 5522 5520 5518 5517 5516 5515 5513 5512 5511 5510 5509 5508 5509 5509 5509 5509 5509 5509 5509 5509 5509 5509 5509 5509 5509 5509 5509 5509 5509
5494 5498 5499 5498 5492 5501 5523 5528 5534 5532 5529 5526 5526 5525 5523 5521 5519 5517 5516 5515 5513 5511 5509 5509 5508 5507 5505 5504 5504 5503 5502 5501 5500 5500 5499 5499 5499 5499 5499 5499 5500 5500 5499 5499 5499 5500 5500 5499 5499
5483 5484 5482 5485 5489 5505 5520 5522 5531 5528 5525 5522 5519 5518 5516 5513 5510 5508 5506 5505 5504 5502 5501 5500 5499 5499 5498 5496 5496 5495 5494 5493 5492 5491 5491 5490 5490 5489 5490 5490 5490 5490 5490 5490 5490 5490 5491 5491 5490
5468 5468 5473 5478 5480 5493 5507 5524 5523 5519 5516 5513 5510 5506 5504 5503 5501 5499 5497 5495 5493 5492 5491 5491 5490 5489 5488 5488 5487 5486 5486 5484 5483 5482 5482 5482 5481 5481 5481 5481 5481 5481 5481 5481 5481 5481 5481 5482 5482
5463 5466 5465 5468 5467 5471 5488 5508 5508 5503 5501 5499 5498 5496 5494 5492 5490 5488 5487 5486 5484 5483 5482 5482 5481 5481 5480 5479 5478 5478 5477 5476 5475 5474 5474 5474 5473 5472 5472 5472 5473 5472 5472 5472 5472 5472 5473 5473 5473